Tracking 18980 objects as of 17-Feb-2018
HD Live streaming from Space Station
objects crossing your sky now

NOAA 16 DEB

Track NOAA 16 DEB now!
10-day predictions


NORAD ID: 41506
Int'l Code: 2000-055ME
Perigee: 769.3 km
Apogee: 853.5 km
Inclination: 98.8 °
Period: 101.0 minutes
Semi major axis: 7182 km
RCS: Unknown
Launch date: September 21, 2000
Source: United States (US)
Launch site: AIR FORCE WESTERN TEST RANGE (AFWTR)

Note: This is SATELLITE DEBRIS
aabbcc
Your satellite tracking list
Your tracking list is empty




NASA's NSSDC Master Catalog

Two Line Element Set (TLE):
1 41506U 00055ME  18047.05883880  .00001186  00000-0  50427-3 0  9993
2 41506  98.8010 132.0512 0058623 256.4589 103.0056 14.26257971108470
Source of the keplerian elements: AFSPC